Terminal Aerodrome Forecast
Issued by NWS

Home | Current Version | Previous Version | Text Only | Print | Product List | Glossary On
Versions: 1 2 3 4 5 6 7 8 9 10 11 12 13 14 15 16 17 18 19 20 21 22 23 24 25 26
000
FTAK31 PANC 031742
TAFAHO
TAF
PAHO 031742Z 0318/0418 04007KT 6SM -RA BR SCT025 OVC035
     FM040500 02005KT P6SM -SHRA SCT025 BKN035=

USA.gov is the U.S. government's official web portal to all federal, state and local government web resources and services.